Weather History for Cairns, QU

Change the Weather History Date:

Thursday, January 26, 2012

  Actual Average Record
Temperature  
Mean Temperature 81 °F -  
Max Temperature 87 °F 88 °F 96 °F (1998)
Min Temperature 75 °F 74 °F 69 °F (2011)
Cooling Degree Days 16    
Growing Degree Days 31 (Base 50)    
Moisture  
Dew Point 74 °F    
Average Humidity 80    
Maximum Humidity 100    
Minimum Humidity 60    
Precipitation  
Precipitation 0.20 in 0.55 in - ()
Sea Level Pressure  
Sea Level Pressure 29.68 in    
Wind  
Wind Speed 5 mph ()    
Max Wind Speed 10 mph    
Max Gust Speed -    
Visibility 7.9 miles    
Events Rain , Thunderstorm    
Averages and records for this station are not official NWS values.
T = Trace of Precipitation, MM = Missing Value Source: Averaged Metar Reports

Daily Weather History Graph

Daily Weather History Graph

Search for Another Location

Airport:

Trip Planner

Search our weather history database for the weather conditions in past years. The results will help you decide how hot, cold, wet, or windy it might be!

Date:

Astronomy

Jan. 26, 2012 Rise Set
Actual Time 6:01 AM AEST 6:56 PM AEST
Civil Twilight 5:38 AM AEST 7:19 PM AEST
Nautical Twilight 5:11 AM AEST 7:47 PM AEST
Astronomical Twilight 4:43 AM AEST 8:14 PM AEST
Moon 8:21 AM AEST (1/26) 8:49 PM AEST (1/26)
Length of Visible Light 13h 41m
Length of Day
12h 55m
Waxing Crescent, 8% of the Moon is Illuminated
Jan 26
Waxing Crescent
Jan 31
First Quarter
Feb 8
Full
Feb 15
Last Quarter
Feb 22
New

Hourly Weather History & Observations

Time (AEST) Temp. Heat Index Dew Point Humidity Pressure Visibility Wind Dir Wind Speed Gust Speed Precip Events Conditions
12:00 AM 76 °F - 73 °F 89% 29.65 in 19 mi North 2.3 mph - -   Partly Cloudy
12:00 AM 77.0 °F - 73.4 °F 89% 29.65 in 6.2 mi North 2.3 mph - N/A   Mostly Cloudy
12:30 AM 77.0 °F - 73.4 °F 89% 29.62 in 6.2 mi SSW 2.3 mph - N/A   Mostly Cloudy
1:00 AM 77 °F - 73 °F 85% 29.63 in - NNW 8.1 mph - -  
1:00 AM 77.0 °F - 73.4 °F 89% 29.62 in 6.2 mi NNW 8.1 mph - N/A   Mostly Cloudy
1:30 AM 77.0 °F - 71.6 °F 83% 29.62 in 6.2 mi WNW 8.1 mph - N/A   Mostly Cloudy
2:00 AM 77.0 °F - 71.6 °F 83% 29.62 in 6.2 mi NW 8.1 mph - N/A   Mostly Cloudy
2:30 AM 77.0 °F - 71.6 °F 83% 29.62 in 6.2 mi WSW 4.6 mph - N/A   Mostly Cloudy
3:00 AM 77 °F - 72 °F 79% 29.63 in 19 mi WNW 4.6 mph - - Rain Light Rain
3:00 AM 77.0 °F - 71.6 °F 83% 29.62 in 6.2 mi WNW 4.6 mph - N/A Rain Light Rain
3:30 AM 78.8 °F - 71.6 °F 78% 29.62 in 6.2 mi NNW 8.1 mph - N/A Rain Light Rain
4:00 AM 79 °F - 71 °F 69% 29.65 in - NW 8.1 mph - -  
4:00 AM 78.8 °F - 69.8 °F 74% 29.62 in 6.2 mi NW 8.1 mph - N/A   Mostly Cloudy
4:30 AM 78.8 °F - 71.6 °F 78% 29.65 in 6.2 mi WNW 6.9 mph - N/A   Mostly Cloudy
5:00 AM 77.0 °F - 71.6 °F 83% 29.65 in 6.2 mi West 5.8 mph - N/A   Mostly Cloudy
5:30 AM 77.0 °F - 71.6 °F 83% 29.65 in 6.2 mi West 5.8 mph - N/A   Mostly Cloudy
6:00 AM 77 °F - 72 °F 80% 29.69 in 19 mi WNW 5.8 mph - - Rain Light Rain Showers
6:00 AM 77.0 °F - 71.6 °F 83% 29.68 in 6.2 mi WNW 5.8 mph - N/A   Mostly Cloudy
6:30 AM 77.0 °F - 71.6 °F 83% 29.68 in 6.2 mi West 5.8 mph - N/A   Mostly Cloudy
7:00 AM 78 °F - 72 °F 76% 29.73 in - West 5.8 mph - -  
7:00 AM 78.8 °F - 71.6 °F 78% 29.71 in 6.2 mi West 5.8 mph - N/A   Mostly Cloudy
7:30 AM 78.8 °F - 73.4 °F 83% 29.74 in 6.2 mi West 4.6 mph - N/A   Mostly Cloudy
8:00 AM 80.6 °F 85.4 °F 73.4 °F 79% 29.74 in 6.2 mi NNW 5.8 mph - N/A   Mostly Cloudy
8:30 AM 82.4 °F 88.2 °F 73.4 °F 74% 29.74 in 6.2 mi WNW 5.8 mph - N/A   Mostly Cloudy
9:00 AM 83 °F - 73 °F 65% 29.74 in 19 mi NW 4.6 mph - -   Scattered Clouds
9:00 AM 82.4 °F 88.2 °F 73.4 °F 74% 29.74 in 6.2 mi NW 4.6 mph - N/A   Mostly Cloudy
9:30 AM 84.2 °F 89.6 °F 71.6 °F 66% 29.71 in 6.2 mi Calm Calm - N/A   Mostly Cloudy
10:00 AM 85 °F - 73 °F 60% 29.73 in - Calm Calm - -  
10:00 AM 84.2 °F 90.9 °F 73.4 °F 70% 29.71 in 6.2 mi Calm Calm - N/A   Mostly Cloudy
10:30 AM 86.0 °F 95.1 °F 75.2 °F 70% 29.71 in 6.2 mi NNW 5.8 mph - N/A   Mostly Cloudy
11:00 AM 87.8 °F 97.6 °F 75.2 °F 66% 29.68 in 6.2 mi North 8.1 mph - N/A   Mostly Cloudy
11:30 AM 86.0 °F 93.4 °F 73.4 °F 66% 29.68 in 6.2 mi North 10.4 mph - N/A   Mostly Cloudy
12:00 PM 87 °F - 75 °F 60% 29.68 in 19 mi North 10.4 mph - -   Partly Cloudy
12:00 PM 86.0 °F 95.1 °F 75.2 °F 70% 29.68 in 6.2 mi North 10.4 mph - N/A   Mostly Cloudy
12:30 PM 86.0 °F 93.4 °F 73.4 °F 66% 29.65 in 6.2 mi North 9.2 mph - N/A   Mostly Cloudy
1:00 PM 85 °F - 74 °F 63% 29.67 in - North 9.2 mph - -  
1:00 PM 86.0 °F 95.1 °F 75.2 °F 70% 29.65 in 6.2 mi North 9.2 mph - N/A   Mostly Cloudy
1:30 PM 86.0 °F 95.1 °F 75.2 °F 70% 29.65 in 6.2 mi North 8.1 mph - N/A   Mostly Cloudy
2:00 PM 86.0 °F 95.1 °F 75.2 °F 70% 29.65 in 6.2 mi North 6.9 mph - N/A   Mostly Cloudy
2:30 PM 86.0 °F 95.1 °F 75.2 °F 70% 29.65 in 6.2 mi North 8.1 mph - N/A   Mostly Cloudy
3:00 PM 85 °F - 75 °F 66% 29.64 in 19 mi North 9.2 mph - -   Partly Cloudy
3:00 PM 84.2 °F 92.3 °F 75.2 °F 74% 29.62 in 6.2 mi North 9.2 mph - N/A   Mostly Cloudy
3:30 PM 84.2 °F 92.3 °F 75.2 °F 74% 29.62 in 6.2 mi North 8.1 mph - N/A   Mostly Cloudy
4:00 PM 82 °F - 77 °F 79% 29.66 in - NW 10.4 mph - -  
4:00 PM 82.4 °F 90.9 °F 77.0 °F 84% 29.65 in 3.1 mi NW 10.4 mph - N/A Rain , Thunderstorm Light Thunderstorms and Rain
4:30 PM 78.8 °F - 77.0 °F 94% 29.65 in 6.2 mi WNW 6.9 mph - N/A Rain Light Rain Showers
4:45 PM 77.0 °F - 77.0 °F 100% 29.65 in 6.2 mi WNW 5.8 mph - N/A Rain Light Rain
5:00 PM 78.8 °F - 77.0 °F 94% 29.65 in 6.2 mi West 5.8 mph - N/A   Mostly Cloudy
5:30 PM 78.8 °F - 77.0 °F 94% 29.65 in 6.2 mi WSW 1.2 mph - N/A   Mostly Cloudy
6:00 PM 79 °F - 77 °F 93% 29.68 in 19 mi WNW 3.5 mph - -   Partly Cloudy
6:00 PM 78.8 °F - 77.0 °F 94% 29.68 in 6.2 mi WNW 3.5 mph - N/A   Overcast
6:30 PM 78.8 °F - 77.0 °F 94% 29.68 in 6.2 mi Calm Calm - N/A   Overcast
7:00 PM 78 °F - 77 °F 94% 29.70 in - Calm Calm - -  
7:00 PM 78.8 °F - 77.0 °F 94% 29.68 in 6.2 mi Calm Calm - N/A   Overcast
7:30 PM 78.8 °F - 77.0 °F 94% 29.68 in 6.2 mi West 1.2 mph - N/A   Overcast
8:00 PM 78.8 °F - 77.0 °F 94% 29.71 in 6.2 mi West 4.6 mph - N/A   Mostly Cloudy
8:30 PM 78.8 °F - 77.0 °F 94% 29.71 in 6.2 mi WNW 3.5 mph - N/A   Overcast
9:00 PM 78 °F - 76 °F 92% 29.72 in 16 mi WSW 1.2 mph - -   Partly Cloudy
9:00 PM 78.8 °F - 77.0 °F 94% 29.71 in 6.2 mi WSW 1.2 mph - N/A   Mostly Cloudy
9:30 PM 78.8 °F - 73.4 °F 83% 29.71 in 6.2 mi NW 4.6 mph - N/A   Mostly Cloudy
10:00 PM 79 °F - 72 °F 74% 29.75 in - NW 6.9 mph - -  
10:00 PM 78.8 °F - 71.6 °F 78% 29.74 in 6.2 mi NW 6.9 mph - N/A   Mostly Cloudy
10:30 PM 78.8 °F - 71.6 °F 78% 29.74 in 6.2 mi West 6.9 mph - N/A   Mostly Cloudy
11:00 PM 77.0 °F - 73.4 °F 89% 29.74 in 6.2 mi WNW 4.6 mph - N/A   Mostly Cloudy
11:30 PM 78.8 °F - 73.4 °F 83% 29.71 in 6.2 mi WNW 4.6 mph - N/A   Mostly Cloudy